Weather History for Wooster, OH

Change the Weather History Date:

Monday, November 26, 2012

  Actual Average Record
Temperature  
Mean Temperature 32 °F -  
Max Temperature 41 °F 44 °F 66 °F (2006)
Min Temperature 23 °F 30 °F 23 °F (2012)
Degree Days  
Heating Degree Days 33    
Moisture  
Dew Point 26 °F    
Average Humidity 77    
Maximum Humidity 92    
Minimum Humidity 55    
Precipitation  
Precipitation 0.00 in - - ()
Sea Level Pressure  
Sea Level Pressure 30.18 in    
Wind  
Wind Speed 1 mph (NW)    
Max Wind Speed 7 mph    
Max Gust Speed -    
Visibility 7 miles    
Events Snow    
Averages and records for this station are not official NWS values.
T = Trace of Precipitation, MM = Missing Value Source: NWS Daily Summary

Daily Weather History Graph

Daily Weather History Graph

Search for Another Location

Airport:

Trip Planner

Search our weather history database for the weather conditions in past years. The results will help you decide how hot, cold, wet, or windy it might be!

Date:

Astronomy

Nov. 26, 2012 Rise Set
Actual Time 7:27 AM EST 5:01 PM EST
Civil Twilight 6:57 AM EST 5:32 PM EST
Nautical Twilight 6:23 AM EST 6:05 PM EST
Astronomical Twilight 5:50 AM EST 6:38 PM EST
Moon 3:53 PM EST (11/26) 5:36 AM EST (11/26)
Length of Visible Light 10h 34m
Length of Day
9h 34m
Waxing Gibbous, 97% of the Moon is Illuminated
Nov 26
Waxing Gibbous
Nov 28
Full
Dec 6
Last Quarter
Dec 13
New
Dec 20
First Quarter

Hourly Weather History & Observations

Time (EST) Temp. Windchill Dew Point Humidity Pressure Visibility Wind Dir Wind Speed Gust Speed Precip Events Conditions
12:56 AM 27.0 °F - 23.0 °F 85% 30.04 in 7.0 mi Calm Calm - 0.00 in   Clear
1:56 AM 27.0 °F - 24.1 °F 89% 30.05 in 7.0 mi Calm Calm - N/A   Mostly Cloudy
2:56 AM 27.0 °F - 25.0 °F 92% 30.07 in 7.0 mi Calm Calm - 0.00 in   Clear
3:56 AM 28.0 °F - 25.0 °F 88% 30.09 in 8.0 mi Calm Calm - N/A   Mostly Cloudy
4:56 AM 28.0 °F - 25.0 °F 88% 30.11 in 7.0 mi Calm Calm - N/A   Clear
5:56 AM 26.1 °F - 23.0 °F 88% 30.13 in 7.0 mi Calm Calm - N/A   Clear
6:56 AM 24.1 °F - 19.9 °F 84% 30.16 in 4.0 mi Calm Calm - 0.00 in   Clear
7:56 AM 23.0 °F - 21.0 °F 92% 30.18 in 4.0 mi Calm Calm - N/A   Clear
8:56 AM 30.0 °F - 27.0 °F 88% 30.21 in 4.0 mi Calm Calm - N/A   Clear
9:56 AM 33.1 °F - 28.0 °F 82% 30.22 in 5.0 mi Calm Calm - 0.00 in Snow Light Snow
10:30 AM 37.4 °F - 28.4 °F 70% 30.18 in 7.0 mi Calm Calm - 0.00 in   Scattered Clouds
10:56 AM 37.0 °F 34.5 °F 28.0 °F 70% 30.23 in 9.0 mi SSW 3.5 mph - 0.00 in Snow Light Snow
11:31 AM 37.4 °F - 26.6 °F 65% 30.18 in 9.0 mi Calm Calm - 0.00 in Snow Light Snow
11:56 AM 37.9 °F - 26.1 °F 62% 30.22 in 9.0 mi Calm Calm - 0.00 in Snow Light Snow
12:56 PM 39.0 °F 35.7 °F 25.0 °F 57% 30.19 in 10.0 mi WNW 4.6 mph - 0.00 in   Clear
1:56 PM 41.0 °F 37.1 °F 26.1 °F 55% 30.18 in 10.0 mi WNW 5.8 mph - N/A   Scattered Clouds
2:56 PM 41.0 °F 37.1 °F 26.1 °F 55% 30.19 in 10.0 mi West 5.8 mph - N/A   Clear
3:56 PM 39.9 °F - 25.0 °F 55% 30.19 in 10.0 mi Calm Calm - N/A   Mostly Cloudy
4:56 PM 37.9 °F 34.4 °F 28.0 °F 68% 30.20 in 9.0 mi NE 4.6 mph - 0.00 in Snow Light Snow
5:56 PM 37.0 °F - 28.0 °F 70% 30.20 in 10.0 mi Calm Calm - 0.00 in   Overcast
6:56 PM 36.0 °F 32.1 °F 28.0 °F 73% 30.23 in 10.0 mi NNE 4.6 mph - N/A   Overcast
7:56 PM 36.0 °F - 27.0 °F 70% 30.23 in 9.0 mi Calm Calm - 0.00 in   Overcast
8:56 PM 35.1 °F 32.2 °F 28.9 °F 78% 30.24 in 9.0 mi NNW 3.5 mph - N/A   Overcast
9:56 PM 35.1 °F 31.0 °F 28.9 °F 78% 30.25 in 4.0 mi NNW 4.6 mph - 0.00 in Snow Light Snow
10:56 PM 34.0 °F 28.0 °F 30.9 °F 89% 30.25 in 6.0 mi NNW 6.9 mph - 0.00 in   Overcast
11:46 PM 33.8 °F 29.6 °F 30.2 °F 87% 30.24 in 2.5 mi NW 4.6 mph - 0.00 in Snow Light Snow
11:56 PM 33.1 °F 28.7 °F 30.9 °F 92% 30.27 in 2.0 mi NNW 4.6 mph - 0.00 in Snow Light Snow